Location: Big Prairie
(40.6673°N, 82.0952°W)
Time: 03:41:23
(UTC+00:00)

Meteor 1-26 Rocket - Pass Details

Date: 02 July 2022
Orbit: 810 x 924 km, 81.3° (Epoch: 13 August)

Event Time Altitude Azimuth Distance (km) Brightness Sun altitude
Rises 07:42:02 0° 340° (NNW) 3,483 8.0 -19.5°
Reaches altitude 10° 07:44:41 10° 331° (NNW) 2,558 7.1 -19.3°
Maximum altitude 07:49:46 32° 270° (W) 1,501 5.2 -18.8°
Enters shadow 07:51:23 28° 241° (WSW) 1,644 5.2 -18.6°
